Temperature
17 17 17 17 16 16 16 16 16 16 16 16 16 16 16 15 16 16 16 16 16 16 16 16 16 16 16 16 16 16 17 17 17 17 17 17 17 17 17 18 18 18 18
17 17 17 17 16 16 16 16 16 16 16 15 16 15 15 15 15 15 16 16 16 16 16 16 16 16 16 16 16 16 16 16 16 16 16 17 17 17 17 17 17 18 18
17 17 17 16 16 16 16 16 16 16 16 15 15 15 15 15 15 15 15 15 16 16 16 16 16 16 16 16 16 16 16 16 16 16 16 16 16 16 17 17 17 17 17
17 16 17 17 16 16 16 16 16 16 16 16 15 15 14 14 14 15 15 15 16 16 16 16 16 16 16 16 16 16 16 16 16 16 16 16 16 16 16 17 17 17 17
17 16 17 17 17 16 16 16 16 16 16 16 15 15 14 14 14 14 15 15 15 16 16 16 16 16 16 16 16 16 16 15 16 16 16 16 16 16 16 16 16 17 17
17 17 17 17 17 17 16 16 16 16 16 16 15 15 14 14 14 14 14 15 15 15 16 16 16 16 16 16 16 16 16 15 15 16 16 16 16 16 16 16 16 16 16
17 17 17 17 17 17 17 17 16 16 15 15 15 14 14 14 14 14 14 14 14 15 15 16 16 16 16 16 16 16 16 16 16 16 16 16 16 16 16 16 16 16 16
17 17 17 17 17 17 17 17 17 16 16 15 15 15 14 13 13 13 14 14 14 14 14 15 15 16 16 16 16 16 16 16 16 16 16 16 16 16 16 16 16 16 16
17 17 17 17 17 17 17 17 17 17 17 16 15 15 15 14 14 13 13 14 14 14 14 14 15 15 15 15 15 16 16 16 16 15 15 15 15 16 16 16 16 16 16
17 16 16 17 17 17 17 17 17 17 17 16 15 15 16 16 15 14 13 13 14 14 13 14 14 14 14 15 15 15 15 16 16 15 15 15 15 15 15 16 15 16 16
16 16 16 16 16 17 17 17 17 17 17 16 16 15 15 15 15 15 14 14 14 14 13 13 14 14 14 14 14 15 15 15 15 15 15 14 15 15 15 15 15 15 15
16 16 16 16 16 16 16 17 17 17 16 16 16 16 16 16 16 16 16 15 15 14 14 13 13 13 13 14 14 14 14 15 15 15 15 14 14 14 15 15 15 15 15
15 15 15 15 15 15 16 16 16 16 16 16 16 16 16 16 16 16 16 16 15 15 14 14 13 13 13 13 13 14 14 14 14 15 15 14 14 14 14 15 15 15 15
15 15 14 14 14 14 15 15 16 16 16 16 16 16 15 15 15 15 15 15 15 15 15 15 14 14 13 13 13 13 14 14 14 14 14 14 14 14 14 14 14 14 14
14 14 14 14 14 14 14 15 15 15 16 16 16 16 16 16 15 15 15 15 15 15 15 15 15 15 14 13 13 13 13 13 13 13 14 14 13 13 13 13 13 14 14
14 14 14 14 14 14 14 14 15 15 15 16 16 15 16 15 15 15 15 15 15 15 15 15 15 15 14 13 13 13 13 13 13 13 13 13 13 13 13 13 13 14 14
15 14 14 14 14 14 14 14 15 15 15 16 16 15 15 15 15 15 15 15 15 15 15 15 15 15 14 14 13 13 13 13 13 12 13 13 13 14 14 14 14 14 14
15 15 15 14 14 14 14 14 15 15 15 15 15 15 15 15 15 15 15 15 15 15 15 14 15 15 15 14 13 13 12 12 12 12 12 13 13 14 14 14 14 14 14
15 15 14 14 14 14 14 14 14 15 15 15 15 15 15 15 15 15 15 15 15 15 15 14 14 15 15 14 14 13 12 12 12 12 12 12 13 13 13 14 14 14 14
14 14 14 14 14 14 14 14 14 14 15 15 15 15 15 15 15 15 15 15 15 14 14 14 13 14 14 14 14 13 13 12 12 11 11 11 12 12 13 13 13 13 12
14 14 14 14 14 14 14 14 14 14 14 15 15 15 15 15 15 15 15 15 14 14 14 13 13 13 14 14 15 15 14 13 12 11 11 11 11 12 12 12 11 11 10
15 15 15 14 14 15 15 15 14 14 14 15 15 15 15 15 15 15 15 14 14 14 14 13 13 14 14 15 15 15 14 13 12 12 11 11 11 11 11 11 11 10 9
15 15 15 15 15 15 15 15 14 14 14 14 15 15 14 14 15 15 14 14 14 14 14 14 14 15 15 15 15 15 14 14 13 12 11 11 11 11 11 11 11 10 10
15 15 15 14 14 14 14 15 14 14 14 14 14 14 14 14 14 14 14 14 14 14 14 14 15 15 15 15 15 14 14 13 12 11 11 10 11 11 11 11 10 10 10
15 14 14 14 14 14 14 14 14 14 14 14 14 14 14 14 14 14 14 14 14 15 15 15 15 14 14 14 14 14 14 13 13 12 11 11 11 10 11 11 10 10 10
14 14 13 13 14 14 14 13 13 13 13 14 14 14 14 14 14 14 14 14 14 14 14 15 14 14 14 14 14 14 14 14 14 13 12 11 11 10 11 11 10 10 10
Wind_Speed
5 4 4 4 5 7 6 5 7 9 8 8 8 9 8 10 11 12 13 18 17 15 12 12 11 11 11 12 12 11 9 8 6 6 6 6 4 3 2 1 1 3 4
6 4 3 4 4 6 6 6 7 7 6 6 5 7 9 10 12 13 14 16 22 21 18 16 15 14 13 13 13 13 11 9 7 5 4 4 4 4 1 1 1 2 4
8 5 4 4 5 7 8 7 6 7 5 5 5 5 7 9 11 12 13 14 15 19 22 21 20 18 16 14 13 13 12 11 9 7 4 2 2 2 1 1 2 3 4
11 7 5 5 7 8 6 5 4 5 5 5 4 3 3 6 8 10 12 13 13 13 16 19 22 22 21 19 15 14 14 13 11 9 7 5 2 1 1 1 2 3 5
12 8 5 5 9 5 4 6 3 4 5 6 5 4 3 3 4 7 8 11 13 13 13 14 18 20 21 21 20 18 16 16 14 11 8 6 4 1 1 1 1 2 4
13 10 5 7 9 6 5 5 5 3 4 6 7 6 4 4 4 4 4 8 11 13 14 14 13 14 18 20 21 21 19 17 14 12 10 8 5 2 1 1 1 2 3
12 10 6 7 7 8 9 8 5 5 4 4 5 4 4 5 6 4 3 5 8 11 13 13 12 11 12 15 19 20 20 20 17 12 12 11 9 5 2 2 2 2 2
11 10 9 8 9 7 8 8 7 5 3 4 4 4 2 3 4 5 4 4 5 7 9 11 12 12 13 13 16 19 20 20 20 16 13 12 11 8 5 2 3 3 2
10 9 8 9 9 9 10 10 10 8 6 3 2 4 4 4 1 3 4 4 4 4 5 8 10 11 12 13 13 16 17 18 19 18 14 12 11 11 8 5 3 4 4
7 7 7 8 10 9 10 12 10 6 9 6 2 2 3 4 4 2 2 2 3 3 3 4 6 8 10 10 11 13 15 17 18 19 18 17 17 16 12 6 4 4 4
5 5 5 5 8 7 8 9 8 6 6 6 5 3 3 3 3 4 2 1 1 1 1 2 3 4 6 7 9 11 13 15 17 18 20 21 21 22 19 11 5 4 3
6 7 7 4 4 5 7 8 7 8 6 6 5 4 4 4 4 4 4 3 3 2 1 1 0 1 3 5 7 10 12 13 15 17 18 19 21 22 21 19 14 10 7
6 8 7 5 3 4 5 6 6 6 6 7 7 5 4 4 4 4 4 3 2 1 1 2 2 1 2 4 6 9 11 12 13 15 16 18 19 20 21 22 20 18 16
6 9 8 5 3 5 6 6 5 5 6 7 7 7 5 5 4 4 5 5 4 2 3 4 2 3 3 4 6 8 10 11 11 12 13 15 17 18 19 19 20 19 18
7 9 9 7 4 5 6 7 6 6 6 6 6 7 6 6 6 5 5 6 7 5 7 6 4 4 5 5 6 8 9 9 9 10 11 12 14 16 17 18 18 17 16
6 8 8 7 6 6 6 5 4 4 6 6 5 7 7 5 6 6 6 6 6 7 5 4 3 3 6 6 6 7 7 8 8 9 11 11 11 13 15 16 16 15 15
7 8 9 8 8 8 7 5 4 4 5 5 5 6 8 7 6 7 6 6 6 5 5 3 2 2 4 5 5 5 6 6 7 7 10 11 11 11 13 14 14 14 15
7 7 8 7 7 6 6 6 6 7 7 7 7 8 9 7 8 7 7 8 7 6 5 5 3 3 3 4 4 3 3 4 5 6 7 9 9 10 11 12 12 13 14
4 4 6 7 6 6 6 7 8 8 8 9 9 9 10 9 10 8 8 9 8 7 4 5 5 2 2 3 3 2 2 2 3 5 6 7 7 8 9 9 10 12 14
5 5 5 5 6 6 7 7 7 8 8 9 9 10 10 11 12 11 10 9 8 8 5 6 5 3 3 3 3 3 2 1 1 3 4 5 6 8 7 6 8 11 13
8 7 6 6 5 5 6 7 7 8 9 9 9 10 11 13 15 12 9 10 11 10 8 6 5 4 5 6 6 5 4 2 1 1 1 2 3 4 6 6 6 9 10
8 7 7 6 5 4 5 6 7 7 8 9 9 8 8 11 14 17 17 16 17 14 12 9 6 6 9 7 6 5 5 4 3 3 3 1 1 0 1 1 2 5 8
8 7 7 6 5 5 6 6 6 5 7 7 7 5 5 6 9 8 13 16 18 21 20 14 11 10 10 12 12 9 7 5 4 5 5 2 1 2 4 4 4 3 5
7 6 6 5 4 5 5 5 6 4 5 6 6 6 5 4 4 7 7 9 11 14 17 15 14 12 10 11 13 11 9 6 4 2 4 4 3 3 2 6 6 6 6
5 4 4 5 4 4 4 4 2 2 3 4 4 5 5 4 4 6 6 7 9 9 11 12 9 9 14 18 17 10 9 6 3 4 4 4 4 2 1 2 7 8 9
6 6 4 3 4 4 4 3 4 2 2 2 3 4 8 7 6 6 4 5 7 6 5 6 6 9 11 17 22 14 12 9 4 5 7 6 5 4 2 2 3 8 9
Wind_Direction
151 146 145 137 114 107 97 91 108 112 107 96 86 76 59 48 45 48 51 63 66 67 69 73 77 76 74 74 75 76 76 78 91 125 152 166 167 148 111 58 19 32 32
160 157 152 143 132 129 115 111 126 120 113 110 94 82 71 60 51 52 53 55 60 61 63 69 73 75 74 73 71 70 68 67 72 94 132 167 185 180 161 40 51 55 45
175 170 165 154 150 146 127 114 114 114 112 110 97 85 81 69 56 53 56 55 54 54 56 58 61 64 66 66 68 68 65 62 61 63 73 105 179 198 220 13 67 69 50
186 174 177 165 156 152 142 133 136 118 117 116 106 83 86 87 69 61 60 56 53 51 51 53 53 52 52 52 56 62 62 59 55 50 46 45 43 323 262 116 77 61 44
190 179 186 164 162 163 156 154 142 133 130 122 110 75 56 83 83 77 64 62 59 54 51 48 50 48 45 43 43 48 52 50 45 40 37 34 35 19 209 147 80 34 20
188 185 187 168 166 169 167 159 141 120 123 127 107 80 54 63 73 75 77 78 72 66 61 55 49 43 43 41 39 39 40 38 33 32 35 33 29 15 219 198 318 345 349
189 187 186 169 171 179 175 156 136 130 124 127 100 81 50 57 61 49 59 84 80 77 70 62 57 51 42 40 37 37 33 25 21 28 34 31 25 12 322 229 243 289 331
192 195 185 179 177 174 164 162 147 138 142 158 131 115 86 34 36 38 40 59 62 64 66 63 58 51 46 42 36 35 30 22 22 28 30 28 27 22 2 299 243 253 284
194 188 181 177 176 176 178 176 167 156 157 173 149 142 149 179 107 34 40 46 50 48 50 58 55 49 44 42 39 37 33 27 23 25 28 34 35 28 10 348 293 262 259
197 189 179 177 180 183 181 183 175 166 155 159 132 96 126 143 140 109 20 28 61 58 43 54 54 51 49 44 43 41 37 32 30 27 37 46 43 35 26 9 339 295 263
160 153 156 172 186 185 177 177 168 161 154 158 154 142 111 83 107 133 158 221 350 49 61 53 55 55 57 50 48 50 44 38 38 36 39 40 37 31 29 36 37 19 348
140 130 124 142 171 177 175 178 166 162 160 160 159 161 161 155 163 147 148 167 204 221 146 124 76 39 70 61 60 63 56 47 46 44 41 40 38 32 32 42 48 48 34
150 135 123 121 141 167 172 168 170 178 174 174 179 184 177 167 152 141 134 141 159 206 187 202 198 205 106 80 69 67 63 53 48 47 45 43 40 35 36 40 45 48 47
148 141 134 136 158 174 178 172 173 186 188 193 191 187 184 188 167 157 150 143 143 184 219 222 185 195 165 115 92 77 67 60 49 47 48 48 43 38 37 38 40 41 41
150 148 148 156 175 189 187 174 173 178 181 196 202 200 201 196 187 182 166 163 162 184 218 205 190 186 175 144 117 93 78 73 59 47 49 54 48 40 37 36 35 35 34
158 161 165 171 180 194 200 195 179 172 180 195 196 200 209 203 197 195 192 187 180 183 193 164 177 174 175 156 133 107 89 78 70 55 49 54 54 45 38 36 34 33 33
170 175 182 185 190 195 201 204 205 214 215 216 204 206 217 200 196 197 193 185 180 162 156 151 138 148 154 152 124 111 99 79 65 67 60 57 55 48 41 39 38 36 34
181 181 182 190 195 194 194 203 217 222 225 233 232 222 224 210 206 197 193 193 188 172 152 163 161 149 158 154 129 118 100 80 60 70 63 57 54 51 47 44 44 44 41
187 183 180 187 188 190 199 209 214 220 222 228 229 227 226 206 210 203 199 197 191 184 150 147 156 140 133 145 128 108 92 57 73 73 55 45 45 48 51 54 59 59 57
185 188 190 196 203 205 206 209 214 223 229 232 227 224 222 212 212 203 201 195 180 175 157 146 150 153 147 145 148 157 160 146 90 73 57 45 36 39 42 60 80 77 74
194 191 199 216 222 216 210 206 211 220 227 230 225 220 218 217 217 206 198 189 179 180 170 165 159 156 170 174 194 171 158 142 158 153 86 24 35 31 26 38 84 93 87
196 192 203 215 227 231 240 234 218 218 223 223 226 223 217 221 223 215 208 195 186 184 188 184 175 183 196 191 164 161 145 151 201 192 160 182 65 91 301 343 63 110 106
190 195 200 203 226 253 270 277 273 237 225 220 215 209 217 211 209 208 214 207 200 201 198 190 190 195 190 189 173 170 172 167 185 167 150 174 206 215 240 242 274 188 137
191 192 194 197 217 257 278 302 308 248 223 215 200 193 208 220 199 201 202 200 200 208 207 202 205 203 192 178 177 177 162 127 93 142 154 167 192 216 230 233 244 221 186
178 169 177 187 204 257 289 296 264 210 228 222 199 186 182 179 184 188 189 197 202 212 210 205 206 191 177 170 162 143 149 154 168 189 186 163 175 190 215 236 235 235 206
165 157 159 175 206 242 270 261 180 171 190 174 171 179 176 167 164 147 152 183 207 207 178 179 173 173 170 174 173 172 171 173 159 187 188 168 160 161 194 241 228 230 221
Height
1534 1536 1538 1541 1543 1545 1546 1548 1549 1549 1549 1550 1550 1551 1551 1550 1550 1549 1548 1548 1548 1548 1547 1547 1546 1546 1546 1546 1545 1545 1546 1546 1546 1547 1548 1549 1550 1551 1552 1552 1552 1552 1552
1534 1536 1538 1541 1543 1545 1547 1548 1549 1550 1550 1551 1552 1552 1552 1553 1552 1552 1551 1550 1550 1550 1550 1549 1548 1547 1546 1546 1546 1546 1546 1546 1546 1547 1547 1548 1550 1551 1551 1552 1553 1552 1552
1533 1536 1538 1541 1543 1545 1547 1548 1550 1550 1551 1552 1553 1553 1554 1554 1554 1554 1553 1553 1552 1552 1552 1551 1550 1548 1548 1548 1547 1547 1547 1546 1546 1547 1547 1548 1549 1550 1551 1552 1553 1553 1553
1532 1535 1537 1540 1543 1544 1546 1548 1549 1550 1551 1552 1553 1554 1555 1555 1555 1555 1555 1554 1553 1553 1553 1552 1551 1550 1550 1550 1549 1548 1548 1547 1547 1547 1547 1547 1548 1549 1550 1551 1552 1552 1553
1530 1533 1536 1538 1541 1543 1544 1546 1549 1550 1551 1552 1553 1555 1556 1556 1556 1556 1555 1555 1554 1554 1553 1553 1553 1552 1552 1551 1551 1549 1548 1548 1547 1547 1547 1547 1548 1548 1549 1551 1552 1552 1553
1527 1531 1534 1536 1538 1540 1542 1544 1547 1550 1551 1552 1553 1555 1556 1556 1557 1557 1557 1556 1555 1555 1554 1554 1554 1553 1553 1553 1552 1551 1550 1549 1548 1548 1547 1547 1547 1548 1548 1549 1550 1551 1552
1524 1527 1530 1533 1535 1537 1539 1542 1545 1548 1550 1551 1553 1555 1556 1557 1557 1557 1557 1557 1557 1556 1556 1555 1555 1555 1554 1553 1553 1552 1551 1550 1549 1548 1547 1547 1547 1547 1547 1548 1549 1550 1551
1520 1523 1526 1529 1531 1534 1536 1539 1542 1545 1547 1550 1551 1553 1555 1557 1557 1557 1557 1558 1557 1557 1557 1556 1556 1556 1555 1554 1553 1553 1552 1551 1549 1549 1548 1547 1547 1547 1547 1547 1548 1549 1550
1515 1518 1521 1525 1528 1530 1533 1536 1539 1542 1544 1547 1549 1551 1552 1553 1555 1557 1557 1558 1558 1558 1557 1557 1557 1557 1556 1556 1555 1554 1553 1552 1551 1550 1549 1548 1548 1547 1547 1547 1547 1548 1549
1510 1513 1516 1520 1523 1527 1530 1533 1536 1539 1542 1544 1547 1549 1551 1551 1553 1554 1556 1557 1557 1558 1558 1558 1558 1557 1557 1557 1556 1555 1554 1552 1552 1551 1550 1549 1548 1548 1547 1546 1546 1547 1548
1504 1507 1510 1514 1519 1523 1526 1529 1532 1535 1539 1542 1544 1546 1548 1549 1551 1553 1554 1555 1556 1557 1557 1557 1558 1558 1557 1557 1556 1555 1554 1553 1552 1551 1551 1550 1549 1548 1548 1547 1546 1546 1547
1499 1502 1505 1509 1514 1518 1522 1525 1529 1532 1536 1539 1542 1544 1545 1547 1549 1550 1552 1553 1554 1556 1556 1557 1557 1557 1556 1556 1556 1556 1554 1553 1552 1551 1550 1549 1549 1548 1547 1547 1546 1546 1546
1494 1497 1500 1504 1508 1514 1518 1522 1526 1529 1533 1536 1539 1541 1543 1545 1547 1549 1550 1551 1553 1554 1555 1556 1556 1556 1556 1555 1555 1555 1554 1553 1552 1551 1550 1549 1548 1548 1547 1547 1546 1546 1546
1491 1493 1496 1500 1505 1510 1515 1519 1522 1526 1530 1533 1535 1537 1539 1541 1544 1546 1548 1550 1550 1552 1553 1554 1554 1555 1555 1554 1554 1554 1554 1553 1552 1551 1550 1549 1549 1548 1547 1547 1546 1546 1546
1489 1491 1493 1497 1502 1507 1512 1516 1520 1524 1527 1530 1532 1534 1535 1537 1539 1542 1544 1546 1548 1549 1550 1551 1553 1553 1553 1553 1553 1553 1553 1553 1552 1551 1550 1549 1549 1549 1548 1547 1547 1547 1547
1490 1492 1495 1499 1503 1506 1509 1514 1518 1521 1524 1526 1528 1530 1532 1534 1535 1537 1539 1542 1544 1546 1547 1549 1550 1551 1552 1551 1551 1551 1552 1551 1551 1550 1549 1549 1549 1549 1548 1548 1548 1548 1548
1491 1493 1496 1499 1503 1506 1509 1512 1515 1518 1520 1523 1524 1526 1527 1529 1531 1533 1535 1537 1539 1541 1543 1546 1547 1548 1549 1549 1549 1549 1550 1550 1549 1549 1548 1548 1548 1548 1548 1547 1547 1548 1548
1493 1494 1497 1500 1503 1506 1509 1511 1513 1515 1517 1518 1520 1521 1522 1524 1526 1528 1530 1532 1534 1537 1539 1541 1543 1545 1546 1547 1547 1547 1548 1548 1548 1548 1548 1547 1547 1547 1547 1547 1547 1547 1547
1492 1494 1497 1499 1502 1504 1506 1508 1509 1511 1512 1513 1514 1515 1516 1518 1520 1522 1525 1527 1529 1532 1534 1537 1539 1542 1543 1544 1544 1545 1545 1546 1546 1546 1546 1546 1546 1546 1546 1545 1545 1546 1546
1490 1492 1495 1497 1499 1501 1502 1504 1505 1506 1507 1508 1509 1510 1511 1512 1514 1517 1519 1521 1524 1526 1529 1532 1535 1538 1539 1541 1541 1542 1542 1543 1544 1544 1544 1544 1544 1544 1544 1544 1544 1544 1544
1486 1489 1491 1493 1496 1497 1499 1499 1500 1501 1502 1503 1503 1504 1505 1506 1508 1511 1513 1515 1517 1520 1523 1526 1529 1532 1534 1536 1537 1538 1539 1540 1541 1542 1542 1542 1542 1543 1543 1543 1542 1542 1543
1483 1485 1487 1489 1491 1492 1493 1494 1494 1495 1495 1496 1497 1499 1500 1501 1503 1505 1507 1510 1512 1513 1516 1519 1523 1526 1529 1532 1535 1536 1537 1537 1538 1539 1540 1540 1541 1541 1541 1541 1541 1541 1542
1479 1481 1484 1485 1486 1487 1488 1489 1489 1490 1490 1491 1492 1494 1496 1497 1499 1501 1503 1505 1506 1508 1511 1514 1516 1520 1525 1528 1531 1533 1533 1534 1535 1537 1537 1538 1538 1538 1539 1539 1540 1540 1541
1475 1477 1480 1481 1482 1483 1484 1484 1485 1485 1486 1487 1488 1489 1492 1494 1496 1498 1499 1501 1503 1505 1507 1509 1512 1517 1521 1525 1527 1529 1531 1532 1532 1533 1534 1535 1536 1536 1537 1537 1538 1538 1540
1470 1472 1475 1477 1479 1480 1480 1481 1482 1482 1483 1484 1484 1486 1488 1490 1492 1494 1495 1497 1499 1501 1503 1505 1508 1513 1516 1519 1522 1524 1526 1527 1528 1529 1531 1532 1533 1534 1534 1534 1535 1536 1538
1465 1467 1470 1472 1475 1476 1477 1478 1479 1479 1480 1480 1481 1483 1484 1486 1488 1490 1491 1493 1495 1497 1499 1501 1504 1508 1511 1514 1516 1519 1522 1523 1524 1526 1527 1528 1529 1531 1531 1532 1532 1534 1535